Location: *
(50.5492°N, 7.7469°E)
Time: 15:00:25
(UTC+00:00)

Cosmos 1356 - Pass Details

Date: 21 October 2019
Orbit: 447 x 448 km, 81.1° (Epoch: 19 November)

Event Time Altitude Azimuth Distance (km) Brightness Sun altitude
Rises 17:04:58 0° 179° (S) 2,438 7.2 -6.9°
Reaches altitude 10° 17:07:03 10° 174° (S) 1,572 6.2 -7.3°
Maximum altitude 17:10:23 50° 98° (E) 582 3.6 -7.8°
Drops below altitude 10° 17:13:45 10° 22° (NNE) 1,587 5.9 -8.3°
Sets 17:15:52 0° 17° (NNE) 2,465 6.9 -8.6°
